Regional Weather Roundup
Issued by NWS

Home | Current Version | Previous Version | Graphics & Text | Print | Product List | Glossary On
Versions: 1 2 3 4 5 6 7 8 9 10 11 12 13 14 15 16 17 18 19 20 21 22 23 24 25 26 27 28 29 30 31 32 33 34 35 36 37 38 39 40 41 42 43 44 45 46 47
000
ASUS45 KBOI 031410
RWRID

IDAHO REGIONAL WEATHER ROUNDUP
NATIONAL WEATHER SERVICE BOISE ID
800 AM MDT THU SEP 03 2015

NOTE: "FAIR" INDICATES FEW OR NO CLOUDS BELOW 12000 FEET
WITH NO SIGNIFICANT WEATHER AND/OR OBSTRUCTIONS TO VISIBILITY

IDZ012-014-031500-
SOUTHWEST IDAHO


CITY           SKY/WX    TMP DP  RH WIND       PRES   REMARKS
BOISE          MOCLDY    55  44  66 W10       29.91R
CALDWELL       MOCLDY    55  36  47 NW13      29.93R
MOUNTAIN HOME  CLOUDY    58  42  54 NW13      29.89R
$$

IDZ016-017-031500-
SOUTHCENTRAL IDAHO


CITY           SKY/WX    TMP DP  RH WIND       PRES   REMARKS
BURLEY         MOCLDY    59  39  47 W14G23    29.89S
JEROME         PTCLDY    52  41  66 S9        29.93R
TWIN FALLS     PTCLDY    58  37  45 S13       29.93R
$$

IDZ019>023-031500-
SOUTHEAST IDAHO


CITY           SKY/WX    TMP DP  RH WIND       PRES   REMARKS
IDAHO FALLS    PTSUNNY   59  40  49 SW17      29.91R
POCATELLO      SUNNY     60  39  45 SW10      29.93R
REXBURG        CLOUDY    61  38  42 SW12      29.90R
$$

IDZ006-010-011-018-031-032-031500-
CENTRAL IDAHO MOUNTAINS


CITY           SKY/WX    TMP DP  RH WIND       PRES   REMARKS
MCCALL         CLOUDY    50  40  68 W5        29.95R
HAILEY         MOCLDY    50  39  66 CALM      29.93R
STANLEY          N/A     47  32  56 W3        29.96R
SALMON         CLOUDY    55  43  62 N9        29.85S
CHALLIS        MOCLDY    54  34  46 W5        29.84R
$$

IDZ002-004-006-007-026-031500-
NORTHERN IDAHO


CITY           SKY/WX    TMP DP  RH WIND       PRES   REMARKS
LEWISTON       RAIN      56  44  64 E6        29.94R
LOWELL           N/A     54  52  93 CALM      29.95S
COEUR D`ALENE  PTCLDY    48  19  32 S3        29.94R
MULLAN PASS    CLOUDY    40  36  86 VRB5      29.97R
$$



USA.gov is the U.S. government's official web portal to all federal, state and local government web resources and services.